Location: Rounton
(54.4000°N, 1.3500°W)
Time: 12:15:29
(UTC+01:00)

Vanguard 1 - Pass Details

Date: 24 February 2024
Orbit: 653 x 3825 km, 34.2° (Epoch: 22 April)

Event Time Altitude Azimuth Distance (km) Brightness Sun altitude
Rises 23:40:31 0° 261° (W) 6,726 14.4 -44.3°
Reaches altitude 10° 23:44:59 10° 254° (WSW) 6,063 14.0 -44.5°
Enters shadow 23:52:48 27° 236° (SW) 5,214 13.4 -44.7°
